Location: Banios
(43.0451°N, 0.2335°E)
Time: 03:55:41
(UTC+00:00)

Cosmos 1300 - Pass Details

Date: 25 January 2021
Orbit: 511 x 512 km, 82.5° (Epoch: 26 February)

Event Time Altitude Azimuth Distance (km) Brightness Sun altitude
Rises 06:10:45 0° 195° (SSW) 2,612 6.3 -12.9°
Reaches altitude 10° 06:12:53 10° 198° (SSW) 1,731 5.3 -12.5°
Maximum altitude 06:16:38 62° 280° (W) 584 2.6 -11.8°
Drops below altitude 10° 06:20:26 10° 1° (N) 1,746 5.2 -11.2°
Sets 06:22:36 0° 5° (N) 2,638 6.2 -10.8°
